Location: Grand Lay
(47.3253°N, 0.9468°E)
Time: 09:20:00
(UTC+00:00)

CORIOLIS - Pass Details

Date: 18 January 2026
Orbit: 816 x 835 km, 98.7° (Epoch: 15 February)

Event Time Altitude Azimuth Distance (km) Brightness Sun altitude
Rises 06:22:29 0° 14° (NNE) 3,397 7.3 -12.3°
Reaches altitude 10° 06:24:51 10° 15° (NNE) 2,458 6.6 -12.0°
Maximum altitude 06:30:19 86° 105° (ESE) 843 4.3 -11.1°
Drops below altitude 10° 06:35:44 10° 194° (SSW) 2,434 6.7 -10.2°
Sets 06:38:04 0° 195° (SSW) 3,361 7.4 -9.8°
